Location: Beaurevoir
(49.9971°N, 3.3085°E)
Time: 13:41:00
(UTC+00:00)

OBJECT B - Visible Passes

Search period start: 03 October 2024 00:00
Search period end: 13 October 2024 00:00
Orbit: 526 x 542 km, 97.6° (Epoch: 03 October)

Date Brightness Start Highest point End Pass type
(mag) Time Alt. Az. Time Alt. Az. Time Alt. Az.
03 Oct ? 18:24:03 10° SW 18:26:27 15° W 18:28:50 10° NW visible
04 Oct ? 18:14:22 10° SW 18:17:12 19° W 18:20:03 10° NW visible
05 Oct ? 18:04:47 10° SSW 18:07:57 23° W 18:11:07 10° NW visible
06 Oct ? 17:55:17 10° SSW 17:58:41 28° W 18:02:08 10° NW visible
07 Oct ? 17:45:49 10° SSW 17:49:25 35° W 17:53:03 10° NNW visible
08 Oct ? 05:15:55 10° NE 05:18:41 18° E 05:21:25 10° SE visible
08 Oct ? 17:36:24 10° S 17:40:08 44° W 17:43:54 10° NNW visible
09 Oct ? 05:07:04 10° NE 05:09:20 15° E 05:11:36 10° SE visible
10 Oct ? 04:58:24 10° ENE 04:59:58 12° E 05:01:31 10° ESE visible
12 Oct ? 18:36:19 10° WSW 18:37:50 12° W 18:39:21 10° WNW visible
